Temp
1 2 2 3 3 4 4 4 4 4 4 5 5 5 6 6 7 7 8 9 9 10 10 10 10 10 10 10 10 11 11 12 12 12 12 13 13 13 13 13 13 13 13 13 13 12 12 12 12 13 13 14 15 15 15 14 14 14 14 14 14 14 14 14 15 15 15 15 15
1 1 1 2 3 3 3 4 4 4 4 4 5 5 5 5 6 7 7 8 8 9 9 9 10 10 10 10 10 10 11 11 11 12 12 13 13 13 12 12 13 13 13 13 13 13 12 12 12 12 12 13 14 15 15 15 15 14 14 14 14 14 14 14 14 15 15 15 15
1 1 1 1 2 3 3 3 4 4 4 4 4 4 4 5 6 6 7 7 8 8 9 9 9 10 10 10 10 10 10 11 11 11 12 12 13 12 12 12 13 13 13 13 13 13 13 12 12 12 12 12 12 13 14 15 15 15 15 14 14 14 14 14 14 14 15 15 15
1 1 1 1 2 2 3 3 3 3 3 3 3 4 4 4 5 6 6 7 7 8 8 9 9 9 10 10 9 9 10 10 11 11 11 12 12 12 12 12 12 13 13 13 13 13 13 13 12 12 12 12 12 12 13 14 15 15 15 14 14 14 13 13 14 14 14 15 15
1 1 1 1 1 2 2 2 3 3 3 3 3 3 4 4 4 5 6 6 7 8 8 9 9 9 9 9 9 9 9 10 10 11 11 11 12 12 12 12 12 12 13 13 13 13 13 13 12 12 12 12 12 12 12 13 14 15 15 14 14 13 13 13 13 13 14 14 14
0 0 0 0 0 1 1 2 2 3 3 3 3 3 3 4 4 5 5 6 7 7 8 8 9 9 9 9 9 9 9 10 10 10 11 11 12 12 12 12 12 12 12 13 12 12 12 13 12 12 12 12 12 12 12 12 12 13 14 14 14 14 14 13 13 13 13 13 13
-0 -0 -0 -0 -0 0 1 1 2 2 3 3 3 3 3 3 4 4 5 5 6 7 8 8 8 9 9 9 9 9 9 10 10 11 11 11 12 12 11 11 11 12 12 12 12 12 12 12 12 12 12 12 12 12 12 11 11 12 12 13 14 15 15 14 14 13 13 13 13
-0 -0 -0 -0 -0 0 1 1 2 2 2 3 3 3 3 3 4 4 4 5 6 7 7 8 8 9 9 9 9 9 9 9 10 10 11 12 12 12 11 11 11 12 12 12 12 12 12 12 12 12 12 12 12 12 11 11 11 11 11 12 12 13 14 15 14 14 13 13 12
-0 -1 -1 -0 -0 0 1 1 1 2 2 3 3 3 3 3 3 4 4 5 6 6 7 8 8 8 9 9 9 8 9 9 10 10 11 11 12 12 11 11 11 11 12 12 12 12 12 12 12 12 12 12 12 12 11 11 11 11 11 11 11 12 12 14 14 14 14 13 12
-0 -1 -1 -0 -0 0 0 1 1 2 2 2 3 3 3 3 3 4 4 5 6 7 7 7 8 8 8 8 8 8 8 9 9 10 10 11 11 11 11 11 11 12 12 12 11 11 11 12 12 12 12 12 12 11 11 11 11 10 10 10 10 11 11 12 13 14 14 14 13
-0 -0 -0 -0 -0 0 0 1 1 2 2 3 3 4 4 4 5 5 5 6 6 7 7 7 8 8 8 8 8 8 8 9 9 9 10 10 10 10 11 11 12 12 12 11 11 10 11 11 11 12 12 11 11 11 11 11 10 10 10 10 10 10 10 11 11 12 14 14 14
-0 -0 -0 -0 0 0 0 1 1 2 3 3 4 4 5 5 5 6 6 6 7 7 7 7 8 8 8 8 8 8 8 8 9 9 9 9 9 10 10 11 11 12 12 11 10 10 10 11 11 11 11 11 11 11 10 10 10 10 9 9 9 9 10 10 10 10 11 13 13
0 0 0 0 0 0 1 1 2 2 3 3 4 4 5 5 6 6 6 7 7 7 7 7 7 8 8 8 8 8 8 8 9 9 9 9 9 9 10 10 10 11 11 10 9 9 9 10 10 11 11 11 11 11 10 10 10 10 9 9 9 9 9 9 9 9 10 10 12
0 0 0 0 0 1 1 1 2 2 3 3 3 4 4 5 5 6 7 7 7 7 7 7 7 8 8 8 8 8 8 8 8 9 9 9 10 10 9 9 10 10 10 10 9 9 9 9 9 10 10 10 10 10 10 10 10 10 9 9 9 8 8 8 8 9 9 9 10
0 1 1 1 1 1 1 2 2 2 2 3 3 3 4 4 5 6 6 7 7 7 6 7 7 7 8 8 8 7 8 8 8 9 9 10 10 10 9 9 9 9 9 9 9 8 8 8 9 9 9 10 10 10 10 10 10 10 9 9 9 8 8 8 8 8 8 8 8
0 1 1 1 1 1 1 2 2 2 2 3 3 3 3 4 4 5 6 6 6 6 6 6 7 7 8 8 7 7 7 8 8 9 9 10 10 10 9 9 9 9 9 9 8 8 8 8 8 9 9 9 9 9 9 10 10 10 9 9 9 8 8 8 7 7 7 7 7
1 1 1 1 1 1 1 1 2 2 2 2 3 3 3 4 4 5 5 5 6 6 6 6 6 7 7 7 7 7 7 7 8 8 9 10 10 10 10 9 9 9 9 9 8 8 8 8 8 8 8 8 9 9 9 9 9 9 9 9 9 8 8 8 7 7 7 7 7
1 1 1 1 1 1 1 1 1 2 2 2 2 3 3 4 4 4 5 5 5 5 5 5 6 6 7 7 7 7 7 7 7 8 9 9 9 9 9 9 9 9 9 8 8 8 8 8 8 8 8 8 8 8 8 8 9 9 9 9 8 8 8 8 8 7 6 6 6
1 1 1 1 1 1 1 1 1 1 1 2 2 2 3 3 4 4 4 4 5 5 5 5 5 6 6 7 7 7 7 7 7 8 8 9 9 9 9 9 9 9 8 8 7 8 8 8 7 7 7 7 7 7 7 8 8 8 8 8 8 8 8 8 8 7 6 6 6
1 1 1 1 0 0 1 1 1 1 1 1 2 2 2 3 3 3 4 4 4 4 5 5 5 5 6 6 7 7 6 6 7 7 8 8 9 9 9 9 9 9 9 8 7 7 7 7 7 7 7 7 7 7 7 7 7 7 7 7 7 7 8 8 8 7 7 6 6
0 0 0 0 0 0 0 0 1 1 1 1 1 2 2 2 3 3 3 4 4 4 4 4 5 5 6 6 6 6 6 6 6 7 7 8 8 9 9 9 9 9 9 9 8 7 7 7 7 7 6 6 6 6 6 6 6 6 7 7 7 7 7 7 8 8 8 7 6
0 0 0 -0 -0 0 0 0 0 0 1 1 1 1 2 2 2 3 3 3 3 4 4 4 4 5 5 5 6 6 6 6 6 6 6 7 8 8 8 9 9 9 9 9 9 8 8 7 7 7 6 6 6 6 6 6 6 6 6 6 6 6 6 7 7 8 8 8 7
0 -0 -0 -0 -0 -0 0 0 0 0 1 1 1 1 1 2 2 2 3 3 3 3 3 4 4 4 5 5 5 5 6 6 6 6 6 6 7 7 8 8 9 9 9 9 9 9 8 8 7 7 7 6 6 6 5 5 5 5 5 5 5 5 6 6 6 7 7 7 7
-0 -0 -0 -0 -0 -0 -0 0 0 0 0 1 1 1 1 1 2 2 2 2 3 3 3 3 4 4 4 5 5 5 5 5 5 5 5 6 6 7 7 8 8 8 8 8 9 9 9 8 7 7 7 6 6 5 5 5 4 4 4 4 4 5 5 5 6 6 6 7 7
-0 -0 -0 -0 -0 -0 -0 0 0 0 0 0 1 1 1 1 1 2 2 2 2 2 3 3 3 3 4 4 4 4 4 5 5 5 5 5 5 6 7 7 7 8 8 8 8 8 8 8 8 7 6 6 6 5 5 4 4 4 4 4 4 4 4 5 5 5 5 6 6
-0 -0 -0 -0 -0 -0 -0 -0 0 0 0 0 1 1 1 1 1 1 2 2 2 2 2 2 3 3 3 4 4 4 4 4 4 4 4 4 4 5 5 6 6 6 7 7 7 8 8 8 8 7 6 5 5 5 5 4 4 4 3 3 4 4 4 4 4 4 4 4 4
-0 -0 -0 -0 -0 -0 -0 -0 -0 0 0 0 1 1 1 1 1 1 1 1 2 2 2 2 2 3 3 3 3 3 3 3 4 4 4 4 4 4 5 5 5 5 5 6 6 7 8 8 8 7 6 5 5 5 5 4 4 4 3 3 3 3 3 3 3 3 3 3 3
-0 -0 -0 -0 -0 -0 -0 -0 -0 0 0 0 1 1 1 1 1 1 1 1 1 2 2 2 2 2 3 3 3 3 3 3 3 3 3 3 4 4 4 4 4 4 4 4 5 6 6 7 7 7 6 6 5 4 4 4 4 4 3 3 3 3 3 3 3 3 3 3 3
-0 -0 -0 -0 -0 -0 -0 -0 0 0 0 0 1 1 1 1 1 1 1 1 1 1 2 2 2 2 2 2 3 3 3 3 3 3 3 3 3 3 4 4 4 4 4 4 4 4 5 5 5 6 6 6 5 5 4 4 4 4 3 3 3 3 3 3 3 3 3 3 3
-0 -0 -0 -0 -0 -0 -0 -0 0 0 0 0 1 1 1 1 1 1 1 1 1 1 2 2 2 2 2 2 2 3 3 3 3 3 3 3 3 3 3 3 3 3 4 4 4 4 4 4 4 4 4 5 5 4 4 4 3 3 3 3 3 3 3 3 3 3 3 3 3
0 0 -0 -0 -0 -0 -0 -0 0 0 0 0 1 1 1 1 1 1 1 1 1 1 1 2 2 2 2 2 2 2 2 3 3 3 3 3 3 3 3 3 3 3 3 3 3 3 3 3 3 3 3 4 4 4 4 3 3 3 2 2 2 2 2 2 2 2 2 3 2
0 0 0 -0 -0 -0 -0 -0 0 0 0 0 1 1 1 1 1 1 1 1 1 1 1 1 2 2 2 2 2 2 2 2 2 2 3 3 3 3 3 3 3 3 3 3 3 3 3 3 3 3 3 3 3 3 3 3 3 2 2 2 2 2 2 2 2 2 2 2 2
0 0 0 0 -0 -0 -0 -0 -0 0 0 0 0 0 0 1 1 1 1 1 1 1 1 1 1 1 1 1 2 2 2 2 2 2 2 2 2 2 2 2 2 2 2 2 2 2 2 2 2 2 2 2 2 3 3 2 2 2 2 1 1 2 2 2 2 2 2 2 2
0 0 0 0 0 -0 -0 -0 -0 0 0 0 0 0 0 0 0 0 0 1 1 1 1 1 1 1 1 1 1 1 1 2 2 2 2 2 2 2 2 2 2 2 2 2 2 2 2 2 2 2 2 2 2 2 2 2 2 1 1 1 1 1 1 1 1 1 1 1 1
0 0 0 0 0 -0 -0 -0 -0 -0 0 0 0 0 0 0 0 0 0 0 0 0 0 0 1 1 1 1 1 1 1 1 1 1 2 2 2 2 2 2 2 2 2 2 1 1 1 1 1 1 1 1 1 1 1 1 1 1 1 1 1 1 1 1 1 1 1 1 1
-0 0 0 0 0 -0 -0 -0 -0 -0 -0 -0 0 0 0 0 0 0 0 0 0 0 0 0 0 0 0 1 1 1 1 1 1 1 1 1 1 1 1 1 1 1 1 1 1 1 1 1 1 1 1 1 1 1 1 1 1 0 0 0 0 0 0 1 1 1 1 1 1
-0 -0 -0 -0 -0 -0 -0 -0 -0 -0 -0 -0 -0 -0 -0 -0 -0 -0 -0 0 0 0 -0 0 0 0 0 0 0 0 0 0 1 1 1 1 1 1 1 1 1 1 1 1 1 1 1 1 1 1 1 1 1 1 1 0 0 0 -0 -0 -0 -0 -0 0 0 0 0 0 1
-0 -0 -0 -0 -0 -0 -0 -0 -0 -0 -0 -0 -0 -0 -0 -0 -0 -0 -0 -0 -0 -0 -0 -0 -0 -0 -0 -0 -0 0 0 0 0 0 0 0 0 0 0 0 1 1 1 1 1 1 0 0 0 1 1 1 1 1 0 0 -0 -0 -0 -0 -0 -0 -0 -0 -0 -0 -0 0 0
-1 -0 -0 -0 -0 -0 0 0 0 -0 -0 -0 -0 -0 -0 -0 -0 -0 -0 -0 -0 -0 -0 -1 -1 -1 -0 -0 -0 -0 -0 -0 -0 -0 -0 -0 -0 0 0 0 0 0 1 1 1 0 0 0 0 0 0 0 0 0 0 -0 -0 -0 -1 -1 -1 -1 -0 -0 -0 -0 -0 -0 -0
-1 -1 -0 -0 -0 0 0 0 0 0 -0 -0 -0 -0 -0 -0 -0 -0 -0 -0 -0 -0 -0 -1 -1 -1 -0 -0 -0 -0 -0 -0 -0 -0 -0 -0 -0 -0 -0 -0 -0 0 0 0 0 0 0 -0 -0 -0 0 0 -0 -0 -0 -0 -1 -1 -1 -1 -1 -1 -1 -1 -1 -1 -1 -1 -1
-1 -1 -1 -0 -0 -0 0 0 0 0 -0 -0 -0 -0 -0 -0 -0 -0 -0 -0 -0 -0 -0 -1 -1 -1 -1 -0 -0 -0 -0 -1 -1 -1 -0 -0 -0 -0 -0 -0 -0 -0 -0 -0 0 0 -0 -0 -0 -0 -0 -0 -0 -0 -1 -1 -1 -1 -1 -1 -1 -1 -1 -1 -1 -1 -1 -1 -1
Height
750 750 749 749 748 748 747 747 747 747 746 746 746 745 745 744 743 742 742 742 742 741 741 741 740 740 740 740 740 739 739 739 739 739 739 739 739 740 740 739 739 739 740 740 740 740 739 739 739 739 738 738 737 737 738 738 739 739 740 740 741 741 742 742 743 743 744 745 745
750 749 749 749 748 748 747 747 747 746 746 746 745 745 744 744 743 742 742 742 742 741 741 740 740 740 739 739 739 739 739 739 739 739 739 739 739 739 739 739 739 739 739 740 740 740 739 739 739 739 739 738 738 737 737 737 738 738 739 739 740 740 740 741 741 742 743 743 744
749 749 749 748 748 748 747 747 747 746 746 745 745 744 744 743 743 742 742 741 741 741 741 740 739 739 739 739 738 738 738 738 738 738 738 738 739 739 739 739 739 739 739 740 740 740 739 739 738 738 738 739 738 738 737 737 737 737 737 738 738 739 739 739 740 740 741 742 742
749 748 748 748 748 748 747 747 747 746 746 745 744 744 743 743 742 742 741 741 740 740 740 740 739 739 739 738 738 738 738 738 738 738 738 738 738 738 738 739 739 739 740 740 740 740 739 739 739 738 738 738 738 738 738 737 737 736 736 736 737 737 737 738 738 739 739 740 741
748 748 748 747 747 747 747 747 747 746 746 745 744 743 743 742 742 742 741 741 740 740 740 740 739 738 738 738 737 737 737 737 737 737 737 737 738 738 738 739 739 739 740 740 740 740 739 739 739 738 738 738 738 738 738 738 737 737 736 735 735 736 737 737 737 738 738 739 739
747 747 747 747 747 747 747 747 746 746 746 745 745 743 742 742 741 741 741 740 740 740 739 739 738 738 737 737 737 737 737 737 737 737 737 737 737 738 738 738 739 739 739 740 740 739 739 739 738 738 738 738 738 738 738 738 738 737 736 735 735 735 736 737 737 737 738 738 739
747 747 746 746 746 746 746 746 746 745 745 745 744 743 742 742 741 740 740 740 739 739 739 739 738 737 737 737 737 737 737 737 736 736 736 737 737 738 738 738 738 738 739 739 739 739 739 739 739 738 738 738 738 738 738 739 739 739 737 736 735 735 735 736 736 737 737 738 738
747 746 746 745 745 745 745 745 745 745 744 744 744 743 742 741 740 740 739 739 739 738 738 738 738 737 737 737 737 736 736 736 736 736 736 736 737 738 738 738 738 738 738 739 739 739 739 739 739 739 739 739 739 739 739 739 739 739 739 738 737 735 734 734 735 736 737 737 738
747 746 745 745 745 744 744 744 744 744 744 743 743 742 742 741 740 739 739 738 738 738 738 738 737 737 737 737 737 736 736 736 735 735 735 736 737 737 738 738 738 738 739 739 739 739 739 740 739 739 739 739 740 740 740 740 740 740 739 739 738 737 736 734 734 734 735 737 737
746 746 745 744 744 743 743 743 743 743 742 742 742 742 741 740 739 739 738 738 738 738 738 738 737 737 737 737 737 736 736 736 735 735 735 735 736 737 738 738 738 738 739 739 740 740 740 740 740 740 740 740 740 740 740 740 740 740 740 739 739 738 737 736 734 733 734 735 737
746 745 745 744 743 743 742 742 742 742 742 741 741 740 740 739 738 738 738 738 738 738 738 737 737 736 736 736 737 736 736 736 735 735 735 735 736 736 737 738 738 738 739 739 740 741 741 741 741 741 741 741 741 741 741 741 740 740 740 740 739 739 738 737 736 735 733 734 736
745 745 744 744 743 743 742 742 741 741 740 740 740 739 739 738 738 737 737 738 738 738 737 737 737 736 736 737 737 737 736 736 736 735 735 735 735 736 737 737 738 739 739 740 741 741 741 741 741 741 741 742 742 742 741 741 741 740 740 740 740 739 739 738 737 737 735 734 734
745 744 744 744 743 742 742 741 741 740 740 739 739 738 738 738 737 737 737 737 737 737 737 736 736 736 737 737 737 737 737 737 736 736 735 735 735 736 736 737 738 739 740 741 742 742 742 742 742 742 742 742 742 742 742 742 741 741 741 741 740 740 739 739 738 738 737 736 734
744 744 744 743 743 742 742 741 740 740 739 739 738 738 737 737 736 736 736 737 736 736 736 736 736 737 737 737 737 737 737 737 737 736 736 735 735 735 736 737 738 739 740 741 742 742 742 742 742 742 742 742 742 742 742 742 742 742 741 741 741 741 740 739 739 739 739 738 736
744 743 743 743 742 742 741 741 740 740 739 738 738 737 737 736 736 736 736 736 736 736 736 736 737 737 737 737 737 737 737 737 737 737 736 736 735 736 737 737 738 739 740 741 742 742 742 742 742 742 742 742 742 742 742 742 742 742 742 742 741 741 741 741 740 740 740 740 739
743 743 742 742 742 742 741 740 740 739 739 738 737 737 736 736 735 735 735 735 735 736 736 736 737 737 737 737 737 737 737 737 737 737 737 736 736 737 738 738 738 739 740 741 742 742 742 742 742 743 743 743 743 743 742 742 742 742 742 742 742 742 742 742 741 741 741 741 740
742 742 742 742 741 741 741 740 739 739 738 737 737 737 736 735 735 735 735 735 735 735 736 736 736 737 737 737 737 737 737 737 737 737 737 736 737 737 738 738 739 739 740 741 741 742 742 742 743 743 743 743 743 743 743 742 742 742 742 742 742 742 742 742 742 742 742 741 741
742 742 742 741 741 740 740 740 739 738 738 737 737 736 736 735 735 735 735 735 735 735 735 736 736 736 737 737 737 737 737 737 737 737 737 737 737 737 738 738 738 739 740 741 741 741 742 742 743 743 744 744 744 744 743 743 742 742 742 742 742 742 742 742 742 742 742 742 742
742 741 741 741 740 740 739 739 738 738 737 737 737 736 736 735 735 735 735 735 735 735 735 735 736 736 736 736 736 736 737 737 737 737 737 737 737 737 737 737 738 739 740 741 741 741 742 742 743 744 744 745 745 744 744 744 743 743 743 742 742 742 742 742 742 742 742 742 742
741 741 740 740 739 739 739 738 738 737 737 737 736 736 735 735 735 735 735 735 735 735 735 735 735 735 736 736 736 736 736 736 737 737 737 737 737 737 737 737 738 738 739 740 741 741 742 742 743 744 744 745 745 745 745 745 744 744 744 743 743 743 743 742 742 742 742 742 742
741 740 740 739 739 738 738 737 737 737 736 736 736 735 735 735 735 735 735 735 735 735 735 735 735 735 735 736 736 736 736 736 737 737 737 737 737 737 737 737 737 738 739 740 741 741 742 742 743 744 745 745 745 746 746 746 745 745 745 744 744 744 743 743 743 743 743 743 743
740 740 739 738 738 738 737 737 737 736 736 735 735 735 735 734 734 734 734 734 735 735 735 735 735 735 735 735 735 736 736 736 736 737 737 737 737 737 737 737 737 738 738 740 740 741 742 742 743 744 745 746 746 746 746 746 746 746 746 746 745 744 744 743 743 743 743 743 744
740 739 738 738 737 737 737 736 736 735 735 735 735 734 734 734 734 734 734 734 734 734 735 735 735 735 735 735 736 736 736 736 736 737 737 737 737 737 737 737 737 737 738 739 740 741 742 743 744 745 745 746 747 747 747 747 747 747 747 747 746 745 744 744 743 743 743 743 744
739 739 738 738 737 737 736 736 735 735 735 734 734 734 734 734 734 734 734 734 734 734 734 735 735 735 735 736 736 736 736 736 737 737 737 737 737 737 737 737 737 737 738 739 740 741 742 743 744 745 746 747 747 747 748 748 748 748 748 747 747 746 745 744 744 743 743 743 744
739 739 738 737 737 737 736 736 735 735 734 734 734 734 734 734 734 734 734 734 734 734 734 735 735 735 736 736 736 736 737 737 737 737 737 737 737 737 737 737 737 737 738 739 740 740 741 743 744 746 747 747 747 748 748 749 749 749 749 749 748 747 746 745 745 744 744 744 744
739 739 738 737 737 737 736 736 735 735 735 734 734 734 734 734 734 734 734 734 734 734 734 735 735 735 736 736 736 737 737 737 737 738 738 738 738 737 737 737 737 738 738 739 739 740 741 742 744 746 747 748 748 748 749 749 750 751 751 750 749 748 747 746 746 746 746 746 746
739 739 738 738 737 737 736 736 736 735 735 735 734 734 734 734 734 734 734 734 734 734 735 735 735 735 736 736 737 737 737 738 738 738 738 738 738 738 738 738 738 738 739 739 739 739 740 742 743 745 747 748 749 749 749 750 751 751 752 751 750 749 748 748 747 747 747 747 747
739 739 738 738 737 737 737 736 736 736 735 735 735 735 735 734 734 734 734 734 735 735 735 735 736 736 736 737 737 737 738 738 738 739 739 739 739 739 739 739 739 740 740 740 740 739 740 741 742 744 746 747 749 749 750 750 751 752 752 752 751 750 750 749 749 749 748 748 748
740 739 739 738 738 737 737 737 736 736 736 736 735 735 735 735 735 735 735 735 735 736 736 736 736 737 737 737 737 738 738 738 739 739 739 739 739 739 740 740 740 741 742 742 741 740 740 741 742 744 745 747 748 749 750 751 751 752 752 752 752 751 751 750 750 749 749 749 748
740 739 739 739 738 738 738 737 737 737 736 736 736 736 736 736 736 736 736 736 736 736 737 737 737 737 737 737 738 738 738 739 739 739 740 740 740 740 741 741 742 742 742 743 742 742 741 741 742 743 745 747 748 749 750 751 751 751 752 752 752 752 752 751 750 750 749 749 749
740 740 739 739 739 739 738 738 738 737 737 737 737 737 736 736 737 737 737 737 737 737 737 737 737 738 738 738 738 739 739 739 739 740 740 740 741 741 742 742 742 743 744 744 743 743 742 742 743 744 745 746 747 748 749 750 751 752 752 752 752 752 752 752 751 750 750 750 750
740 740 740 739 739 739 739 739 738 738 738 737 737 737 737 737 737 737 738 738 738 738 738 738 738 738 739 739 739 739 739 740 740 740 741 741 741 742 742 742 743 744 744 744 744 744 743 743 744 744 745 746 747 747 748 749 750 752 752 752 753 753 753 752 752 751 751 751 751
740 740 740 740 740 740 740 740 739 739 739 738 738 738 738 738 738 738 738 739 739 739 739 739 739 739 740 740 740 740 740 740 741 741 741 742 742 742 743 743 744 744 744 744 744 744 744 744 744 745 746 746 747 747 747 748 750 751 752 753 753 753 753 753 752 752 752 752 752
740 740 740 740 740 740 740 740 740 740 740 739 739 739 739 739 739 739 739 740 740 740 740 740 740 740 741 741 741 741 741 742 742 742 742 742 743 743 743 744 744 745 745 745 745 744 744 745 745 745 746 746 746 747 747 748 749 750 752 753 753 754 754 754 753 753 753 753 753
740 740 740 740 740 740 741 741 741 741 740 740 740 740 740 740 740 740 741 741 741 741 741 741 741 741 742 742 742 742 742 742 743 743 743 743 743 744 744 744 745 746 746 745 745 745 745 745 746 746 746 746 747 747 747 747 749 750 752 752 753 754 754 754 754 754 754 754 754
740 740 740 740 740 741 741 741 741 741 741 741 741 741 741 741 741 741 742 742 742 742 742 742 742 742 742 743 743 743 743 744 744 744 744 744 744 744 745 745 746 746 746 746 746 746 746 746 747 747 747 747 747 747 747 748 749 750 751 752 753 754 755 755 755 755 755 755 755
741 740 740 740 741 741 741 741 742 742 742 742 742 742 742 742 742 742 742 742 742 742 743 743 743 743 743 744 744 744 744 745 745 745 745 745 745 745 745 746 746 747 747 747 747 747 747 747 747 747 747 748 748 748 748 749 750 750 751 752 753 754 755 755 756 756 756 756 756
741 741 741 741 741 741 741 742 742 742 742 742 742 742 742 742 743 743 743 743 743 743 743 744 744 744 745 745 745 745 745 746 746 746 746 746 746 746 746 747 747 747 748 748 748 748 748 748 748 748 748 748 748 749 749 750 750 751 752 752 753 754 755 756 756 756 757 757 757
741 741 741 741 741 741 742 742 742 742 743 743 743 743 743 743 743 743 744 744 744 744 744 744 745 745 746 746 746 746 746 747 747 747 747 747 747 747 747 747 747 748 749 749 749 749 749 749 749 749 749 749 749 749 750 750 751 752 752 753 754 755 756 756 757 757 757 758 758
741 741 741 741 741 742 742 742 742 743 743 743 743 743 744 744 744 744 744 744 744 745 745 745 746 746 747 747 747 747 747 747 748 748 748 748 748 748 748 748 749 749 750 750 750 750 750 749 750 750 750 750 750 750 751 751 752 752 753 754 754 755 756 757 757 757 758 759 759
741 741 741 741 741 742 742 742 743 743 743 743 744 744 744 744 744 745 745 745 745 745 746 746 747 747 747 747 747 748 748 748 749 749 749 749 749 750 750 750 750 750 751 751 751 751 751 750 751 751 751 751 751 752 752 752 752 753 754 754 755 756 757 757 758 759 759 760 760
Wind_Speed
8 8 8 8 9 10 10 10 11 11 12 13 14 14 15 15 15 14 14 13 12 12 11 11 11 9 8 7 7 7 6 6 3 1 3 4 4 4 3 3 4 5 5 4 4 4 3 3 3 4 4 3 1 1 2 3 4 4 6 7 8 9 10 10 12 16 20 23 25
9 9 9 9 9 9 10 11 11 11 12 12 13 14 15 15 16 16 15 14 14 14 14 13 13 11 9 8 6 6 6 6 4 2 3 5 6 5 3 3 4 4 4 4 4 4 4 3 3 3 4 5 5 5 3 1 3 4 5 7 8 9 10 11 12 13 15 19 23
9 9 9 9 9 9 10 11 11 11 12 14 14 15 15 15 16 16 16 16 15 15 15 15 14 13 11 9 7 6 5 5 4 2 3 6 7 5 3 3 3 4 3 3 4 4 5 4 4 4 4 4 5 6 6 5 3 2 3 5 7 9 10 11 13 14 15 17 21
10 10 9 9 9 10 11 11 12 12 13 14 15 16 16 15 16 16 17 17 15 15 15 15 16 15 13 11 9 7 5 5 5 3 3 6 7 6 4 4 4 4 3 2 3 4 5 5 5 5 5 5 4 4 4 4 4 4 3 2 4 6 8 10 12 14 16 17 20
10 10 10 10 10 10 10 11 12 12 13 14 15 16 16 16 16 16 16 16 15 15 15 16 16 16 14 12 11 9 7 6 6 5 3 5 7 7 5 4 4 4 3 2 2 3 4 5 5 5 5 5 5 4 4 3 3 4 5 4 2 3 5 6 8 10 12 14 16
11 12 12 12 11 11 10 11 11 12 13 13 14 15 16 16 16 16 16 16 15 14 14 16 17 16 15 13 12 10 9 7 7 6 5 4 6 7 5 4 3 4 3 2 2 3 4 5 5 5 5 5 5 4 4 3 3 4 6 6 6 5 3 3 3 5 6 8 10
12 13 13 13 13 12 12 12 12 12 13 13 14 15 16 17 17 17 17 17 16 14 14 16 17 17 16 14 12 11 9 8 7 7 7 5 5 5 5 3 3 4 4 3 2 2 3 4 4 4 5 5 4 3 3 3 3 5 6 8 9 8 7 6 4 1 2 4 6
13 13 14 14 14 13 13 12 12 13 13 14 14 15 16 17 18 18 18 17 16 14 14 15 17 17 16 14 12 11 9 8 7 8 9 8 6 6 5 4 3 4 4 3 2 2 3 4 3 4 4 4 3 2 2 2 3 5 6 8 9 10 10 10 8 6 2 2 4
12 13 14 14 14 14 13 13 13 13 14 14 14 15 15 16 17 18 18 17 16 14 14 15 16 16 16 14 12 11 10 8 7 8 9 9 8 7 7 6 5 4 4 3 3 3 3 3 3 4 4 4 3 3 2 2 3 5 6 6 7 8 9 10 10 8 6 3 2
12 13 14 14 14 14 14 14 14 14 14 14 13 13 14 15 16 17 17 16 14 13 13 15 16 16 15 13 11 10 9 8 7 7 8 8 8 8 8 8 7 6 5 4 2 3 3 4 4 4 4 4 4 4 3 3 4 5 6 6 6 7 7 8 8 9 9 8 4
12 13 13 14 14 14 15 15 15 15 14 14 13 13 14 15 16 15 14 13 12 13 14 13 14 14 14 12 10 9 8 8 7 7 7 7 8 8 9 10 10 9 8 6 3 3 3 4 5 5 5 4 4 4 4 4 5 6 7 7 7 7 8 8 8 10 11 11 8
13 13 13 13 14 14 15 15 15 15 14 13 12 13 15 15 14 13 12 12 13 13 12 11 12 13 12 10 8 7 7 7 7 7 7 7 7 8 9 11 11 11 11 8 5 3 3 4 5 6 5 4 3 3 5 5 6 7 8 8 8 9 9 9 9 10 12 13 12
13 13 13 13 13 14 14 14 14 14 13 12 13 14 14 11 8 8 9 11 10 9 8 8 10 11 10 8 7 6 5 5 6 6 6 6 7 7 9 10 12 13 12 9 6 3 3 4 5 5 5 5 4 3 3 4 6 7 8 9 9 9 10 10 10 11 12 13 14
12 12 12 12 13 13 13 13 13 13 12 12 12 12 11 8 4 4 7 8 6 5 5 7 8 9 8 7 6 5 4 4 5 5 5 5 5 6 7 9 10 12 12 9 6 3 2 3 4 4 5 5 5 5 4 3 4 5 7 8 9 10 10 10 10 11 12 12 14
12 12 12 12 12 12 12 12 11 11 11 11 10 10 10 8 5 3 4 6 6 5 6 7 8 8 8 8 7 5 5 5 5 4 3 3 3 4 6 8 9 10 10 9 6 4 3 3 3 4 4 5 6 6 5 4 4 4 5 7 8 9 9 9 10 11 11 12 14
12 12 12 11 11 11 11 10 10 10 10 9 8 8 9 8 7 5 5 6 7 8 8 9 9 9 9 9 7 6 5 5 5 5 3 2 1 3 6 7 8 9 9 8 6 5 4 3 3 3 4 5 5 6 6 5 5 5 5 5 7 8 9 10 10 10 11 12 13
12 12 11 11 10 10 9 9 9 9 8 8 7 6 7 7 7 7 7 7 8 8 9 9 9 9 9 9 8 7 6 6 6 5 4 3 2 3 5 6 7 7 8 7 6 6 5 4 3 3 3 4 5 6 6 6 6 6 6 6 7 8 9 10 10 11 11 12 12
12 11 10 10 9 9 8 8 8 7 7 6 5 5 5 6 7 7 7 8 8 8 8 8 9 9 10 10 9 8 7 7 6 6 5 4 4 3 3 4 4 6 7 7 6 6 6 5 4 3 3 3 4 5 5 6 6 6 6 7 7 8 9 10 10 11 12 12 13
11 10 10 9 8 8 7 7 7 6 6 5 5 5 5 6 6 7 7 7 7 7 7 7 8 9 10 10 9 8 8 7 7 7 6 5 5 4 4 3 2 3 4 6 6 6 6 6 5 4 3 3 3 4 4 5 6 6 7 7 8 9 9 10 10 11 12 13 13
11 10 9 9 9 8 7 7 6 6 5 5 4 4 4 5 6 6 6 6 6 7 7 7 8 9 10 11 10 9 8 8 8 8 7 6 5 5 5 5 4 3 2 4 5 5 5 5 4 4 3 3 4 4 4 5 6 7 7 8 9 9 9 10 10 11 11 13 14
10 10 10 10 9 8 7 6 6 6 5 4 3 3 4 4 5 5 5 5 5 6 6 7 8 9 10 11 10 10 9 9 9 9 8 8 7 6 6 6 6 5 3 3 4 4 4 4 4 4 3 4 4 5 5 6 7 8 8 9 10 10 10 10 10 10 10 11 12
10 10 10 10 9 8 6 5 5 5 5 4 3 3 3 3 3 3 4 4 5 5 6 7 7 9 10 11 11 11 10 10 10 10 9 9 9 8 7 7 7 7 6 5 5 5 5 4 4 4 3 4 4 5 6 7 8 9 10 11 11 12 12 12 11 11 10 10 11
11 10 10 9 8 7 5 4 4 4 3 3 2 2 1 2 2 2 3 3 4 4 5 6 7 8 9 10 11 11 11 11 11 11 11 10 11 10 9 9 8 8 8 8 7 7 7 6 5 4 4 4 4 5 6 7 8 10 11 12 12 13 13 13 13 13 13 12 12
10 10 8 7 6 5 4 3 3 3 2 2 1 0 1 0 1 1 2 3 3 4 5 6 6 7 8 10 10 11 11 12 12 12 12 12 12 12 12 11 10 10 10 10 9 8 8 7 6 5 5 5 5 5 6 7 9 10 11 12 13 13 14 14 14 15 15 15 15
9 8 7 5 5 5 4 3 3 3 2 1 1 2 3 3 3 3 3 3 4 4 4 5 6 7 8 9 10 10 11 11 12 12 12 13 13 13 13 13 13 13 13 12 11 9 8 6 6 6 6 6 6 7 7 8 9 9 10 11 13 14 16 16 17 17 17 17 17
8 7 5 4 4 4 4 4 3 3 2 2 2 3 4 5 5 5 5 5 5 5 5 6 6 7 7 8 9 9 10 10 11 11 12 12 13 14 14 15 15 15 15 15 14 12 9 7 7 8 8 8 8 9 9 10 9 9 9 10 13 15 17 18 18 18 18 18 18
7 6 4 3 3 4 4 4 4 4 4 4 5 5 6 6 6 6 7 7 7 6 6 7 7 7 8 8 9 9 9 9 9 9 10 11 12 13 14 14 14 14 14 15 15 14 12 10 10 10 10 10 10 11 12 12 11 10 10 11 13 15 17 17 18 18 18 18 17
6 5 3 3 4 4 4 4 5 6 7 7 7 7 7 7 7 8 8 8 8 8 8 8 8 8 9 9 9 10 10 9 9 8 9 10 11 12 13 13 13 12 12 13 14 16 16 14 14 13 12 12 12 13 13 14 13 13 12 12 13 15 16 16 17 17 17 17 17
5 4 3 4 4 4 4 5 6 7 8 8 8 8 8 8 9 9 9 9 9 10 10 10 10 10 11 11 11 11 11 11 10 10 10 11 12 12 13 13 12 12 11 12 13 15 17 17 17 16 15 14 14 14 14 14 14 14 14 13 14 14 15 16 16 16 17 17 17
4 4 4 4 5 5 5 5 6 7 8 9 9 9 10 10 10 10 11 11 11 11 11 11 12 12 13 13 13 13 13 13 13 13 13 14 14 14 14 14 13 12 12 12 13 15 16 18 18 18 17 17 17 16 16 15 15 15 15 14 14 14 15 16 16 16 17 17 17
3 4 4 5 5 5 5 5 6 7 8 9 10 11 11 12 12 12 12 12 12 12 12 12 13 13 14 14 14 14 14 14 14 15 15 15 15 15 15 14 14 13 12 12 13 15 16 17 18 18 18 19 19 18 17 16 16 15 15 15 14 14 14 15 16 16 17 17 17
2 3 4 4 5 5 5 5 6 8 9 10 11 12 12 12 13 13 13 13 13 13 13 13 14 14 14 14 15 15 15 15 15 16 16 16 16 15 15 15 14 13 13 13 13 14 15 16 17 17 18 18 19 19 18 17 16 16 15 14 14 13 14 14 15 16 16 17 17
3 3 4 5 5 5 5 5 6 8 9 10 11 12 12 12 12 13 13 13 13 14 14 14 14 15 15 15 15 15 15 15 15 15 15 15 15 15 15 14 13 12 12 12 13 13 14 15 16 16 17 18 19 19 19 18 17 16 15 14 14 13 14 14 14 15 16 16 16
4 4 4 5 5 5 5 5 6 7 9 10 11 11 12 12 13 13 13 13 14 14 14 15 15 15 15 15 15 15 15 15 15 15 15 15 15 15 14 14 12 12 11 11 12 12 13 14 15 16 18 19 19 20 20 20 19 18 17 16 15 14 14 14 14 14 15 15 16
4 5 5 5 4 4 4 5 6 8 9 10 11 11 12 12 13 13 13 13 14 14 15 15 15 15 15 15 15 14 14 14 15 15 15 15 15 15 15 14 12 11 11 11 11 11 12 13 14 16 18 19 20 21 21 21 21 20 19 18 17 16 15 14 14 14 14 14 15
4 5 6 6 5 4 4 5 7 8 9 10 11 12 12 12 13 13 13 13 14 14 15 15 15 15 15 15 14 14 14 13 14 14 15 15 15 16 15 14 13 11 11 11 11 11 11 12 14 15 17 19 20 21 22 22 22 21 21 20 19 18 16 15 14 14 13 13 13
4 5 6 6 5 5 5 6 7 8 9 10 11 11 12 12 12 13 13 13 14 15 15 15 15 15 15 15 14 14 13 13 13 13 14 14 15 15 15 15 13 12 11 11 11 11 11 12 13 15 17 18 19 20 21 21 21 21 20 20 19 18 17 16 15 14 13 12 12
4 5 6 6 6 5 6 6 7 8 9 10 10 11 12 12 12 12 13 13 14 15 15 15 15 15 15 14 15 14 14 13 13 13 13 13 13 14 14 14 13 12 11 11 11 11 11 12 13 15 16 18 19 20 20 20 20 20 19 19 19 18 17 17 16 15 14 12 11
4 6 7 6 6 6 6 6 7 8 9 9 10 10 11 11 12 12 12 13 13 14 15 14 14 14 14 14 14 15 15 14 13 13 12 12 12 13 13 14 13 12 11 11 11 12 12 12 13 14 16 18 19 20 20 20 20 19 19 19 19 18 17 16 16 15 14 12 11
4 5 7 7 7 7 6 7 7 8 9 9 10 10 10 11 11 12 12 12 13 13 14 14 14 13 13 13 14 15 15 14 14 13 12 12 11 11 12 13 13 12 12 11 11 12 12 12 13 14 16 18 19 19 19 20 20 19 19 19 18 18 17 16 15 15 14 13 11
4 4 6 7 8 8 7 8 8 9 9 10 10 10 10 11 11 11 11 11 12 12 13 13 13 12 12 13 13 14 14 14 13 13 12 11 11 11 11 12 13 12 12 11 11 11 11 12 13 14 16 17 18 18 19 19 19 19 19 19 18 18 17 16 15 15 14 14 13
Wind_Direction
327 323 318 314 313 313 313 311 311 309 307 306 305 306 308 310 310 309 311 320 331 335 331 324 322 322 326 329 324 311 296 289 294 197 177 187 192 199 209 221 226 226 223 215 196 172 150 126 115 116 118 123 149 242 278 286 282 271 258 248 242 235 231 228 227 225 223 224 225
324 322 319 316 313 311 310 309 308 308 307 305 304 303 303 303 302 302 304 309 319 327 328 324 320 320 326 335 336 325 307 292 287 240 182 182 181 186 200 225 235 239 240 237 218 198 181 165 154 141 133 130 130 128 129 175 246 252 252 251 248 244 239 235 233 231 230 231 231
320 320 321 320 316 312 309 309 309 306 304 303 302 301 300 298 296 296 297 300 308 317 323 321 317 316 322 332 339 335 314 292 281 256 183 174 174 182 200 228 240 244 251 254 233 213 198 182 168 154 145 139 133 126 120 114 126 168 211 231 240 242 241 239 237 234 233 235 235
316 317 317 316 312 308 306 305 306 304 302 302 302 301 300 297 294 292 292 293 300 310 317 317 312 310 314 325 332 333 316 292 277 263 202 174 175 183 201 223 237 244 254 264 247 223 206 189 174 159 149 142 133 121 110 100 94 98 114 174 218 228 232 234 236 235 234 233 233
313 312 310 308 305 302 300 300 300 300 300 301 301 300 299 297 293 290 289 290 293 301 309 311 308 306 308 316 325 328 321 303 280 267 236 190 183 186 199 217 235 245 252 262 255 228 209 194 179 165 154 146 133 119 105 97 91 86 86 90 119 187 213 225 233 235 233 231 227
310 308 306 305 304 303 302 300 300 299 299 298 298 297 296 294 292 290 287 286 284 290 299 305 304 302 303 309 317 324 324 313 292 275 255 217 197 195 199 210 233 245 250 252 249 228 209 195 182 169 159 150 139 129 121 115 114 113 112 111 111 117 140 185 221 233 232 226 215
306 306 306 306 307 306 305 304 303 302 300 297 295 293 292 291 289 288 285 282 278 282 292 299 299 298 298 302 310 320 323 316 295 275 259 242 225 217 214 211 227 243 245 237 225 214 206 194 181 168 159 153 147 142 136 131 133 134 134 131 126 121 115 109 104 121 211 218 208
306 306 306 307 307 305 303 302 302 301 299 296 293 289 287 287 285 284 283 280 275 277 286 293 294 293 292 295 304 314 319 311 292 269 256 249 247 244 239 230 232 240 240 225 200 192 194 192 179 165 156 154 151 147 139 137 142 141 137 132 131 127 119 108 95 87 95 185 205
308 307 307 307 306 304 302 301 300 299 297 295 291 288 284 283 281 279 278 275 270 270 279 286 286 286 286 288 298 308 313 306 291 272 260 255 256 255 248 241 238 240 241 227 194 181 185 187 179 163 151 146 141 133 125 128 140 140 135 131 132 133 128 117 103 87 75 76 169
309 308 308 307 307 306 304 303 302 301 300 298 294 288 284 282 280 278 275 271 264 265 273 278 279 279 279 282 292 302 306 299 289 276 267 263 261 254 244 235 233 239 247 247 216 188 185 186 181 166 150 138 125 114 108 113 128 129 126 127 129 132 133 129 120 102 85 75 75
312 310 308 306 306 307 307 306 306 305 305 303 297 292 288 285 282 280 278 274 268 267 268 267 268 270 273 277 287 296 296 288 279 270 263 259 256 246 234 225 223 230 242 254 245 214 193 188 183 174 162 142 116 98 93 100 112 115 115 117 122 125 127 128 127 119 108 97 90
316 313 310 306 306 307 308 307 307 308 307 303 300 300 299 293 283 277 274 271 268 262 256 251 256 262 266 271 281 287 284 273 265 257 249 241 238 230 221 215 213 219 231 246 254 241 207 190 183 181 178 168 142 106 90 94 102 106 108 110 115 117 117 120 123 123 120 115 107
317 314 311 307 305 306 307 307 307 307 306 303 305 310 312 306 284 257 248 249 250 241 229 233 247 256 260 263 268 269 263 254 250 244 234 224 217 213 209 207 206 210 219 234 249 252 218 193 184 182 184 186 183 164 123 104 102 102 102 104 105 106 108 112 116 118 119 119 115
314 313 311 308 306 305 306 306 306 306 305 304 310 317 320 318 292 231 221 226 224 210 207 228 246 254 255 252 247 240 232 227 229 226 218 209 208 206 202 198 198 201 208 220 232 236 213 191 184 183 184 186 189 190 182 154 122 108 103 100 98 97 99 103 110 113 113 111 113
313 313 312 309 307 306 306 306 306 305 304 303 310 318 323 319 308 265 230 228 232 232 236 246 254 256 251 239 225 214 205 204 206 204 197 188 202 207 203 195 191 192 197 207 215 216 204 186 174 178 181 182 183 186 190 185 167 138 117 106 101 98 97 97 103 106 106 105 105
314 314 312 310 309 308 308 307 307 305 302 299 306 317 321 318 312 300 278 262 258 258 258 258 258 254 244 230 212 196 189 191 193 190 178 150 158 203 207 200 191 187 189 196 200 201 197 188 177 174 177 178 177 178 181 183 179 167 148 128 116 108 103 99 97 98 98 99 99
316 314 312 310 309 308 309 309 311 309 303 298 303 313 317 312 306 300 290 278 269 264 260 256 253 244 233 219 202 186 180 184 185 181 169 146 149 186 204 205 201 195 192 190 187 184 183 184 183 182 179 177 173 170 171 172 173 170 162 150 136 124 115 108 100 94 91 90 92
316 314 312 310 310 308 308 310 313 313 308 301 300 303 302 297 292 289 284 278 271 262 255 249 242 231 220 208 196 184 177 179 178 174 164 151 150 167 184 192 201 203 199 191 180 173 172 173 178 182 183 179 173 168 164 163 162 163 162 155 145 135 128 121 112 101 90 85 89
315 314 314 312 311 308 307 307 310 312 310 304 298 292 287 283 279 278 276 273 267 260 251 241 232 222 212 203 194 184 177 174 172 169 162 153 145 145 147 144 156 190 197 188 175 170 170 170 171 172 173 172 171 167 161 157 152 152 152 147 143 138 134 129 122 111 100 93 94
315 315 315 312 309 308 307 307 305 304 304 302 296 288 281 277 276 273 269 264 260 255 247 236 226 217 209 202 194 186 178 172 169 166 162 155 146 139 134 126 122 131 175 191 179 173 171 169 167 164 161 158 155 153 153 150 145 141 139 137 136 135 134 132 128 120 110 103 99
314 315 313 309 306 306 309 312 309 305 300 296 291 284 278 276 275 270 263 257 252 248 241 231 222 214 207 201 194 186 178 172 168 166 163 160 155 147 137 128 119 117 134 181 191 185 178 173 170 164 158 151 144 141 141 140 138 135 132 131 130 131 132 132 131 128 120 110 101
315 314 312 309 307 308 312 319 318 312 304 294 285 278 274 271 266 262 257 252 245 237 230 223 216 209 203 197 191 184 177 172 169 167 165 164 161 156 146 136 129 127 135 158 179 188 186 185 186 182 171 154 142 136 133 130 128 127 125 125 125 126 128 128 128 128 125 117 104
317 316 314 313 314 315 317 322 323 318 310 296 285 275 273 261 254 250 245 235 227 221 216 212 207 201 196 192 187 181 175 171 168 167 166 166 165 161 155 148 143 141 144 152 166 177 182 184 189 194 191 171 147 132 125 121 120 118 118 118 120 121 121 121 121 120 119 116 110
319 319 320 323 328 329 328 330 333 332 323 309 287 123 102 120 184 203 202 199 198 197 198 197 195 192 188 185 182 178 173 168 166 165 165 165 164 163 160 157 154 152 152 154 159 166 172 177 180 184 187 179 156 136 122 114 110 109 109 112 114 114 115 115 114 114 112 111 109
320 321 325 335 344 347 348 355 2 2 1 14 96 107 103 101 108 125 143 154 161 166 170 174 178 179 179 177 176 174 171 167 164 162 161 161 161 162 162 162 160 159 158 158 159 158 160 166 175 176 172 164 152 137 121 110 103 100 102 105 108 109 109 109 108 107 107 106 106
320 323 330 346 1 8 14 24 32 39 46 70 96 103 102 101 104 110 118 124 130 137 144 150 155 160 164 166 166 166 164 163 161 160 158 156 156 157 159 160 160 160 161 161 161 158 155 157 169 172 166 155 147 137 127 116 107 101 100 103 105 106 105 103 101 100 100 101 102
321 326 336 358 19 29 35 45 55 65 73 80 86 91 95 98 101 103 106 109 114 121 128 132 136 141 147 152 152 151 150 150 152 153 154 154 152 151 152 154 155 157 158 160 160 159 157 158 164 168 166 159 151 142 135 128 121 113 108 105 105 105 103 100 98 97 96 97 98
327 336 354 20 37 47 54 64 72 75 77 79 80 83 87 91 95 97 99 102 106 110 113 116 121 128 133 134 134 133 132 133 134 138 144 147 145 143 141 141 143 145 149 153 155 156 156 157 160 163 164 162 156 148 140 135 130 124 116 110 107 105 104 102 100 98 97 96 97
337 353 18 37 46 53 63 72 77 78 79 80 81 83 86 89 91 92 95 98 100 100 101 104 110 115 117 117 119 120 120 119 120 122 125 128 128 127 126 126 127 130 136 142 145 148 150 153 155 159 162 164 160 153 146 139 134 129 123 116 111 108 107 105 103 102 100 98 97
352 10 28 41 48 54 61 71 79 83 84 85 86 87 89 89 90 91 92 94 94 95 98 102 105 106 106 108 111 112 112 112 113 113 114 114 115 115 116 118 120 124 129 133 135 138 142 145 148 151 156 161 162 158 151 144 137 131 125 120 114 111 108 106 105 103 101 100 98
16 22 30 42 51 56 62 72 84 89 91 91 90 90 90 89 88 89 90 91 93 96 100 102 101 100 102 105 107 107 108 109 110 109 109 109 110 112 113 115 116 120 124 126 127 129 133 139 142 145 150 156 157 156 151 144 136 128 122 118 114 110 107 106 105 104 102 101 99
61 44 38 44 53 58 65 76 89 96 96 95 93 91 90 89 89 89 90 92 94 96 97 97 96 96 97 100 101 103 104 105 105 106 106 107 108 109 110 110 111 113 116 118 120 122 126 132 136 140 144 148 149 148 145 140 132 124 118 114 111 109 106 104 104 103 103 102 100
113 86 64 56 59 63 69 82 95 101 101 98 95 93 91 91 91 91 91 92 93 93 92 91 90 89 90 92 94 97 99 100 102 104 105 106 107 107 106 104 104 105 109 112 114 116 120 125 129 134 137 138 138 137 136 132 126 119 113 109 107 106 104 102 102 102 102 101 101
143 121 99 80 73 73 79 89 101 105 103 99 96 95 94 93 92 91 90 91 91 91 90 89 87 87 87 88 90 91 94 97 100 102 104 105 106 105 102 100 99 100 103 107 111 115 120 124 128 131 132 131 130 129 127 125 121 115 110 106 103 101 99 99 99 99 101 101 102
157 137 121 107 96 91 93 99 106 106 104 100 98 97 96 95 93 91 91 92 93 91 89 88 88 87 87 86 87 88 91 94 97 100 102 103 103 102 99 97 97 98 100 105 109 115 122 128 131 132 131 129 127 125 123 121 117 114 110 106 102 99 96 96 96 98 100 103 104
163 139 125 117 113 109 108 109 111 109 105 102 101 99 98 96 95 95 95 96 95 92 89 88 88 87 85 84 84 85 87 91 94 97 99 100 100 99 98 96 96 95 97 101 106 113 122 130 134 135 134 130 126 124 122 119 116 114 111 108 104 100 98 95 95 95 98 102 105
167 142 125 119 117 116 114 114 115 112 108 106 105 103 101 99 97 97 99 99 96 93 90 89 87 85 83 83 83 84 87 90 93 94 96 97 97 97 96 95 94 92 93 97 103 109 119 128 135 138 136 132 128 125 123 119 117 115 112 109 107 104 101 98 95 94 95 98 101
170 151 134 124 122 121 119 119 120 117 114 111 109 107 105 103 101 100 101 101 99 95 92 90 87 84 84 84 85 86 87 88 90 91 92 93 94 95 94 93 91 90 91 95 101 107 114 124 133 138 138 134 131 129 126 122 120 117 115 112 110 108 106 102 99 96 95 95 96
167 160 147 134 129 127 129 130 129 126 120 116 114 111 109 107 105 104 105 105 103 100 97 93 90 88 88 88 88 87 87 87 87 88 88 89 90 92 92 91 90 90 91 94 99 103 109 119 128 135 137 135 133 130 127 125 121 119 117 115 114 112 110 107 103 99 96 93 91
157 164 157 145 137 132 133 135 134 130 126 122 118 116 113 111 110 110 110 110 108 105 102 98 96 94 94 93 91 89 87 86 85 85 85 87 88 91 93 94 93 93 93 94 97 101 106 114 124 132 135 134 131 129 126 124 120 117 115 115 114 112 110 108 105 101 96 93 88
140 157 162 155 146 138 133 132 132 131 129 126 123 120 118 116 114 113 112 111 110 108 106 104 101 99 98 96 94 92 89 86 84 83 84 86 89 93 96 98 98 96 95 94 95 99 104 111 122 130 133 132 129 127 124 122 117 113 112 112 112 110 108 105 103 100 98 95 92